Weather History for Torrington, WY

Change the Weather History Date:

Saturday, May 18, 2013

  Actual Average Record
Temperature  
Mean Temperature 67 °F 57 °F  
Max Temperature 81 °F 72 °F 90 °F (2009)
Min Temperature 52 °F 43 °F 33 °F (1999)
Degree Days  
Heating Degree Days 0 8  
Month to date heating degree days 177 194  
Since 1 July heating degree days 6394 6426  
Cooling Degree Days 2 0  
Month to date cooling degree days 23 0  
Year to date cooling degree days 23 1  
Growing Degree Days 15 (Base 50)    
Moisture  
Dew Point 46 °F    
Average Humidity 55    
Maximum Humidity 89    
Minimum Humidity 21    
Precipitation  
Precipitation T in 0.06 in 0.29 in (2010)
Month to date precipitation 0.40 1.16  
Year to date precipitation 2.85 4.17  
Sea Level Pressure  
Sea Level Pressure 29.69 in    
Wind  
Wind Speed 8 mph (NNW)    
Max Wind Speed 23 mph    
Max Gust Speed 30 mph    
Visibility 10 miles    
Events      
T = Trace of Precipitation, MM = Missing Value Source: NWS Daily Summary

Daily Weather History Graph

Daily Weather History Graph

Search for Another Location

Airport:

Trip Planner

Search our weather history database for the weather conditions in past years. The results will help you decide how hot, cold, wet, or windy it might be!

Date:

Astronomy

May. 18, 2013 Rise Set
Actual Time 5:32 AM MDT 8:13 PM MDT
Civil Twilight 5:00 AM MDT 8:46 PM MDT
Nautical Twilight 4:20 AM MDT 9:27 PM MDT
Astronomical Twilight 3:33 AM MDT 10:13 PM MDT
Moon 1:12 PM MDT (5/18) 1:33 AM MDT (5/18)
Length of Visible Light 15h 45m
Length of Day
14h 41m
First Quarter, 56% of the Moon is Illuminated
May 18
First Quarter
May 24
Full
May 31
Last Quarter
Jun 8
New
Jun 16
First Quarter

Hourly Weather History & Observations

Time (MDT) Temp. Dew Point Humidity Pressure Visibility Wind Dir Wind Speed Gust Speed Precip Events Conditions
12:53 AM 62.1 °F 46.9 °F 58% 29.63 in 10.0 mi WNW 6.9 mph - N/A   Clear
1:53 AM 57.9 °F 48.0 °F 70% 29.63 in 10.0 mi WNW 8.1 mph - N/A   Clear
2:53 AM 57.0 °F 50.0 °F 77% 29.65 in 10.0 mi NNW 10.4 mph - N/A   Clear
3:53 AM 55.9 °F 50.0 °F 80% 29.66 in 10.0 mi NNW 9.2 mph - N/A   Clear
4:53 AM 54.0 °F 50.0 °F 86% 29.66 in 10.0 mi NW 11.5 mph - N/A   Clear
5:53 AM 52.0 °F 48.9 °F 89% 29.69 in 10.0 mi NNW 9.2 mph - N/A   Scattered Clouds
6:00 AM 53.6 °F 50.0 °F 88% 29.83 in 10.0 mi NW 8.1 mph - N/A   Mostly Cloudy
6:49 AM 53.6 °F 50.0 °F 88% 29.85 in 10.0 mi NW 8.1 mph - N/A   Scattered Clouds
6:53 AM 55.0 °F 50.0 °F 83% 29.73 in 10.0 mi WNW 9.2 mph - N/A   Partly Cloudy
7:53 AM 59.0 °F 51.1 °F 75% 29.74 in 10.0 mi NW 13.8 mph - N/A   Clear
8:53 AM 62.1 °F 52.0 °F 70% 29.74 in 10.0 mi North 11.5 mph - N/A   Clear
9:53 AM 66.0 °F 53.1 °F 63% 29.74 in 10.0 mi NNE 6.9 mph - N/A   Clear
10:53 AM 71.1 °F 53.1 °F 53% 29.73 in 10.0 mi NW 4.6 mph - N/A   Clear
11:53 AM 73.0 °F 51.1 °F 46% 29.71 in 10.0 mi North 5.8 mph - N/A   Clear
1:53 PM 75.0 °F 45.0 °F 34% 29.67 in 10.0 mi North 4.6 mph - N/A   Clear
2:53 PM 75.9 °F 39.0 °F 26% 29.65 in 10.0 mi Variable 3.5 mph - N/A   Clear
3:53 PM 78.1 °F 35.1 °F 21% 29.63 in 10.0 mi Variable 3.5 mph - N/A   Clear
4:53 PM 78.1 °F 36.0 °F 22% 29.59 in 10.0 mi NNW 9.2 mph - N/A   Clear
5:53 PM 73.0 °F 36.0 °F 26% 29.63 in 10.0 mi WNW 19.6 mph 25.3 mph N/A   Overcast
6:53 PM 68.0 °F 37.0 °F 32% 29.65 in 10.0 mi West 20.7 mph 28.8 mph N/A   Mostly Cloudy
7:53 PM 66.0 °F 37.9 °F 36% 29.69 in 10.0 mi ESE 6.9 mph - N/A   Overcast
8:53 PM 61.0 °F 48.0 °F 62% 29.71 in 10.0 mi East 8.1 mph - N/A   Overcast
9:53 PM 59.0 °F 48.9 °F 69% 29.69 in 10.0 mi Calm Calm - 0.00 in   Partly Cloudy
10:53 PM 57.0 °F 48.9 °F 74% 29.69 in 10.0 mi North 8.1 mph - N/A   Partly Cloudy
11:53 PM 57.0 °F 46.0 °F 67% 29.67 in 10.0 mi NNW 5.8 mph - N/A   Clear